Regional Weather Roundup
Issued by NWS

Home | Current Version | Previous Version | Text Only | Print | Product List | Glossary Off
Versions: 1 2 3 4 5 6 7 8 9 10 11 12 13 14 15 16 17 18 19 20 21 22 23 24 25 26 27 28 29 30 31 32 33 34 35 36 37 38 39 40 41 42 43 44 45 46 47 48 49 50

000
ASUS45 KTFX 222004
RWRMT
MONTANA HOURLY WEATHER ROUNDUP
NATIONAL WEATHER SERVICE GREAT FALLS MT
204 PM MDT MON SEP 22 2014

NOTE: "FAIR" INDICATES FEW OR NO CLOUDS BELOW 12000 FEET WITH NO
SIGNIFICANT WEATHER AND/OR OBSTRUCTIONS TO VISIBILITY.

* THESE STATIONS ARE NOT UNDER NWS QUALITY CONTROL. THEY DO NOT
   REPORT WEATHER SUCH AS PRECIPITATION OR FOG.

MTZ001>007-043-222100-
WEST OF THE DIVIDE
CITY           SKY/WX    TMP DP  RH WIND       PRES   REMARKS
KALISPELL      SUNNY     75  45  34 VRB3      29.93F
MISSOULA       SUNNY     79  43  28 E3        29.96F
BUTTE          CLOUDY    64  46  52 CALM      30.11S
MULLAN PASS    PTCLDY    68  39  35 VRB5      30.13S
* ESSEX        N/A       76  44  32 E1         N/A
* LINCOLN      N/A       70  46  42 SW3        N/A
* POLSON       N/A       78  47  34 S3         N/A
* RONAN APT    PTCLDY    79  46  31 N/A        N/A
* SEELEY LAKE  N/A       79  42  27 S3G9       N/A
* THOMP F APT  PTCLDY    53  52  96 SW4G9      N/A
$$

MTZ008-052>055-222100-
SOUTHWEST MONTANA
CITY           SKY/WX    TMP DP  RH WIND       PRES   REMARKS
BOZEMAN        CLOUDY    66  52  61 NW6       30.07S
DILLON         CLOUDY    61  54  78 CALM      30.11F
W YELLOWSTONE  HAZE      55  48  77 SW9G20    30.20S
* THREE FORKS  CLOUDY    64  36  35 N/A        N/A
* BOULDER HILL N/A       63  46  54 SW12G19    N/A
* MONIDA PASS  N/A       54  52  93 SE11       N/A
* RAYNOLDS PAS N/A       57  35  44 SE12       N/A
* WHITEHALL    N/A       70  52  53 SW13G20    N/A
* WISE RIVER   N/A       58  44  60 NW1        N/A
$$

MTZ009>010-012-014-046-048-049-054-222100-
EAST SLOPES AND CENTRAL MONTANA
CITY           SKY/WX    TMP DP  RH WIND       PRES   REMARKS
CUT BANK       SUNNY     84  39  20 NW7       29.89F
GREAT FALLS    PTCLDY    82  46  28 W5        29.90F
HELENA         PTSUNNY   75  48  39 SE10      29.97F
MALMSTROM AFB  PTCLDY    81  46  29 W7G16     29.90F
* CONRAD       SUNNY     82  48  31 N/A        N/A
* EAST GLACIER N/A       77  40  27 W16G22     N/A
* MONARCH      N/A       76  41  29 NW6G11     N/A
* PENDROY      N/A       83  48  30 E3         N/A
* ROGERS PASS  N/A       69  40  35 SE6G19     N/A
* SAINT MARY   N/A       77  38  25 S9G16      N/A
* SWEET GRASS  N/A       81  43  26 SW3        N/A
$$

MTZ011-013-016-021-035-040-045-047-050-051-222100-
NORTH CENTRAL MONTANA
CITY           SKY/WX    TMP DP  RH WIND       PRES   REMARKS
HAVRE          SUNNY     81  48  32 SW6       29.85F
LEWISTOWN      PTCLDY    77  48  36 CALM      29.94F
* CHESTER      N/A       76  46  35 SW3G8      N/A
* DENTON       N/A       76  46  35 NE6        N/A
* GEYSER       N/A       81  44  27 NW10G15    N/A
* JUDITH GAP   N/A       77  48  36 N8         N/A
* LOMA         N/A       81  50  34 SW8        N/A
$$

MTZ017>020-022>027-061-062-222100-
NORTHEAST MONTANA
CITY           SKY/WX    TMP DP  RH WIND       PRES   REMARKS
GLASGOW        SUNNY     77  48  36 E7        29.87F
GLENDIVE       PTCLDY    81  48  32 S7        29.91F
JORDAN         PTCLDY    79  48  34 SE8       29.88F
SIDNEY         SUNNY    N/A N/A N/A SE12      29.90F
WOLF POINT     SUNNY     84  46  26 SE9       29.87F
* BEAVER HILL  N/A       79  48  34 SE17       N/A
* CIRCLE       N/A       81  52  37 SE8G14     N/A
* LINDSAY DVD  N/A       78  44  30 SE16G21    N/A
* NAVAJO       N/A       79  45  30 S12G19     N/A
$$

MTZ028>042-056>058-222100-
SOUTHCENTRAL AND SOUTHEAST MONTANA
CITY           SKY/WX    TMP DP  RH WIND       PRES   REMARKS
BAKER          PTCLDY    79  46  31 SE13G22   29.93F
BILLINGS       PTSUNNY   77  48  36 SW10      29.94F
LIVINGSTON     CLOUDY    70  50  49 W12       30.03F
MILES CITY     PTSUNNY   75  46  36 S8        29.88F
* LAUREL APT   PTSUNNY   79  46  31 S6         N/A
* ROUNDUP APT  PTCLDY    81  48  32 S6         N/A
* ALZADA       N/A       81  48  32 E9         N/A
* HYSHAM       N/A       73  48  41 W6         N/A
* LAME DEER    N/A       75  48  39 NW7G14     N/A
* REED POINT   N/A       76  48  37 W13G23     N/A
* ROSCOE HILL  N/A       74  40  29 NW5G12     N/A
$$

REGIONAL REPORTS...DAKOTAS
CITY           SKY/WX    TMP DP  RH WIND       PRES   REMARKS
WILLISTON      SUNNY     82  43  25 SE10      29.92F
DICKINSON      PTCLDY    77  48  36 SE17      29.94F
BEACH          N/A       77  46  33 SE18G24   29.93F
CROSBY         SUNNY     81  41  24 SE8       29.93F
TIOGA          SUNNY     79  43  28 SE15      29.98F
WATFORD CITY   SUNNY     81  46  29 SE12G20   29.91F
BISMARCK       SUNNY     82  46  28 S17       30.00F
GRAND FORKS    SUNNY     77  48  36 SW13      30.06F
FARGO          SUNNY     75  46  36 S10       30.10F
BUFFALO SD     PTCLDY    75  48  39 SE16      29.89F
RAPID CITY     PTSUNNY   79  48  34 S20G31    29.95F
$$

REGIONAL REPORTS...WYOMING/IDAHO/WASHINGTON
CITY           SKY/WX    TMP DP  RH WIND       PRES   REMARKS
GILLETTE       PTSUNNY   81  46  29 S20G25    29.96S
SHERIDAN       PTSUNNY   79  48  34 N8        29.95F
CODY           PTCLDY    75  43  32 SW13G20   30.02F
YELLOWSTONE LA PTSUNNY   50  46  86 VRB3      30.28F
SALMON         PTCLDY    72  52  49 S14       30.04F
MULLAN PASS    PTCLDY    68  39  35 VRB5      30.13S
SAND POINT     PTCLDY    73  52  48 E6        29.94S
SPOKANE        SUNNY     82  45  27 SW16G21   29.95S

$$



USA.gov is the U.S. government's official web portal to all federal, state and local government web resources and services.